• Processing (Info)

  • MPEC 2019-V180 : 2019 MV3

    The following Minor Planet Electronic Circular may be linked-to from your own Web pages, but must not otherwise be redistributed electronically.

    A form allowing access to any MPEC is at the bottom of this page.


    Read MPEC 2019-V179 Read MPEC 2019-V181


    M.P.E.C. 2019-V180                            Issued 2019 November 14, 16:13 UT
    
         The Minor Planet Electronic Circulars contain information on unusual
             minor planets and routine data on comets.  They are published
        on behalf of Division F of the International Astronomical Union by the
              Minor Planet Center, Smithsonian Astrophysical Observatory,
                              Cambridge, MA 02138, U.S.A.
    
                 Prepared using the Tamkin Foundation Computer Network
    
                                  MPC@CFA.HARVARD.EDU
                URL https://www.minorplanetcenter.net/    ISSN 1523-6714
    
                                    2019 MV3                                 
    
    
                               Revision to MPEC 2019-N43                            
    
    Additional Observations:
         K19M03V  C2012 11 07.60347006 08 51.518+06 35 00.24         22.3 GVEV180F51
         K19M03V  C2012 11 07.61555206 08 51.176+06 34 58.67         21.6 GVEV180F51
         K19M03V  C2012 12 07.38082205 39 43.075+07 24 50.09         21.4 GVEV180F51
         K19M03V  C2012 12 07.39380105 39 41.991+07 24 54.51         20.9 GVEV180F51
         K19M03V  C2012 12 07.48204805 39 34.652+07 25 24.75         21.2 GVEV180F51
         K19M03V  C2012 12 07.49451605 39 33.614+07 25 28.97         21.0 GVEV180F51
         K19M03V  C2013 01 08.29787205 09 10.970+11 39 15.08         22.4 GVEV180F51
         K19M03V  C2013 01 08.31168205 09 10.589+11 39 22.70         22.7 GVEV180F51
         K19M03V  C2013 01 08.32551505 09 10.216+11 39 30.09         22.5 GVEV180F51
    
    Observer details:
    F51 Pan-STARRS 1, Haleakala.  Observers J. Bulger, K. Chambers, T. Lowe, A. 
       Schultz, M. Willman.  Measurers S. Chastel, M. Huber, Y. Ramanjooloo, R. 
       Wainscoat, R. Weryk.  1.8-m Ritchey-Chretien + CCD.
    
    First and last observations above in comparison with prediction:
    Residuals in seconds of arc (or two decimals in degrees), reference and Delta-T
    121107 F51 0.03+ 0.01+    130108 F51 0.03+ 0.00+    MPO504266   +0.00 days
    
    Orbital elements:
    2019 MV3                                                 Earth MOID = 0.2639 AU
    Epoch 2019 Apr. 27.0 TT = JDT 2458600.5                 Veres
    M 318.05588              (2000.0)            P               Q
    n   0.27707787     Peri.  217.38190     +0.99682701     -0.02632268
    a   2.3302445      Node   143.90743     +0.04776562     +0.95274598
    e   0.4609368      Incl.    7.32622     -0.06367387     +0.30262554
    P   3.56           H   20.4           G   0.15           U   0
    Residuals in seconds of arc
    121107 F51  0.3+  0.0     190821 703  1.0+  0.4+    191001 T05  0.2-  0.3-
    121107 F51  0.0   0.1+    190821 703  0.7+  0.1+    191001 T05  0.5-  0.0
    121207 F51  0.0   0.0     190821 703  0.3+  0.1+    191003 703  0.4-  0.1-
    121207 F51  0.1-  0.0     190823 C95  0.2-  0.1+    191003 703  0.4+  0.6+
    121207 F51  0.0   0.1+    190823 C95  0.1-  0.1+    191003 703  0.6-  0.1-
    121207 F51  0.0   0.1+    190823 C95  0.6+  0.4-    191003 703  0.2-  0.4-
    130108 F51  0.2-  0.0     190830 204  0.1+  0.1-    191005 G96  0.1-  0.0
    130108 F51  0.2-  0.1+    190830 204  0.1-  0.1-    191005 G96  0.0   0.0
    130108 F51  0.0   0.1+    190830 204  0.2-  0.2-    191005 G96  0.1-  0.1-
    190630 F51  0.0   0.0     190904 T05  0.1+  0.2+    191005 G96  0.1+  0.1-
    190630 F51  0.1+  0.1+    190904 T05  0.4-  0.0     191006 703  0.9-  0.0
    190630 F51  0.0   0.1+    190904 T05  0.0   0.3-    191006 703  1.1-  0.3+
    190630 F51  0.0   0.0     190904 T05  0.2+  0.7-    191006 703  0.2+  0.1-
    190701 H21  0.2-  0.3-    190910 T08  0.9-  0.0     191006 703  0.7+  0.5-
    190701 H21  0.1-  0.2-    190910 T08  0.7-  0.2+    191007 T08  0.0   0.2-
    190701 I52  0.3-  0.3-    190910 T08  0.6-  0.1-    191007 T08  0.2+  0.5-
    190701 I52  0.2+  0.2-    190910 T08  0.7-  0.0     191007 T08  0.5+  0.3-
    190701 I52  0.5-  0.1-    190910 T08  0.2-  0.7-    191007 T08  0.2-  0.4+
    190701 I52  0.3-  0.1+    190910 T08  0.4+  0.3+    191021 807  0.4+  0.2-
    190702 807  0.0   0.1+    190910 T08  0.3+  0.2-    191021 807  0.4+  0.3-
    190702 807  0.1-  0.1+    190918 I52  0.5-  0.1+    191021 807  0.1-  0.5-
    190702 807  0.1-  0.1+    190918 I52  0.4+  0.4+    191023 703  0.0   0.2-
    190703 291  0.1-  0.2+    190918 I52  0.1+  0.1-    191023 703  0.1+  0.1-
    190703 291  0.1-  0.2+    190918 I52  0.2-  0.2+    191023 703  0.2-  0.6-
    190703 291  0.1-  0.3+    190918 703  0.3+  0.3-    191023 703  0.1-  1.1+
    190707 F51  0.0   0.0     190918 703  0.0   1.7+    191025 T05  0.1-  0.3+
    190707 F51  0.0   0.0     190918 703  0.3-  1.0+    191025 T05  0.6-  0.2+
    190707 F51  0.1+  0.0     190920 703  0.2-  0.0     191025 T05  0.2+  1.0-
    190801 I41  0.4+  0.1-    190920 703  0.1-  0.4-    191025 T05  0.1-  0.6+
    190801 I41  0.4+  0.1+    190920 703  0.1-  0.2+    191025 T05  0.7-  1.1+
    190806 474  0.0   0.2-    190920 703  1.1+  0.6+    191029 703  0.5+  0.7-
    190806 474  0.1-  0.3+    190927 T05  0.2-  0.4-    191029 703  0.4+  0.6-
    190806 474  0.0   0.2-    190927 T05  0.1+  0.2-    191029 703  0.6+  0.7-
    190806 474  0.1+  0.2-    190927 T05  0.4+  0.3-    191031 F51  0.1+  0.1+
    190820 I52  0.0   0.0     190927 T05  0.4+  0.3-    191031 F51  0.0   0.0
    190820 I52  0.3+  0.0     190929 T08  0.1+  0.2-    191031 F51  0.1+  0.0
    190820 I52  0.3-  0.0     190929 T08  0.0   0.1+    191031 F51  0.0   0.0
    190820 I52  0.4+  0.1-    190929 T08  0.5-  0.5-    191101 G96  0.1+  0.0
    190821 H21  0.2+  0.0     190929 T08  0.6+  0.3+    191101 G96  0.0   0.0
    190821 H21  0.1+  0.3+    191001 T05  0.7-  0.1-    191101 G96  0.0   0.1+
    190821 H21  0.1-  0.2+    191001 T05  0.3+  0.1+    191101 G96  0.0   0.0
    
    Ephemeris:
    2019 MV3                 a,e,i = 2.33, 0.46, 7                   q = 1.2561
    Date    TT    R. A. (2000) Decl.     Delta      r    Elong.  Phase     V
    2019 10 15    00 58 57.5 -21 16 32   0.3066  1.2725   150.1    23.0    19.4
    ...
    2019 10 30    01 17 18.7 -18 45 02   0.3623  1.3060   144.8    26.0    20.0
    ...
    2019 11 07    01 26 28.9 -16 33 25   0.4016  1.3306   141.9    27.3    20.3
    ...
    2019 11 13    01 33 22.9 -14 40 01   0.4355  1.3516   139.7    28.3    20.5
    2019 11 14    01 34 32.4 -14 20 14   0.4416  1.3554   139.3    28.4    20.5
    2019 11 15    01 35 42.2 -14 00 15   0.4477  1.3591   139.0    28.5    20.6
    ...
    2019 11 21    01 42 46.7 -11 56 57   0.4870  1.3829   136.6    29.4    20.8
    ...
    2019 11 29    01 52 34.6 -09 07 09   0.5461  1.4175   133.2    30.5    21.2
    ...
    2019 12 14    02 12 28.8 -03 50 01   0.6772  1.4894   126.4    32.1    21.8
    
    A. U. Tomatic                (C) Copyright 2019 MPC           M.P.E.C. 2019-V180
    


    Read MPEC 2019-V179 Read MPEC 2019-V181


    MPEC number:

    Enter an MPEC number in one of the following forms:

    • 1997-B01 (the full form)
    • J97B01 (the packed version of the full form)
    • B01 (the abbreviated form)